COSMOS 1275 DEB, 13490

Orbit data source: Space-Track

COSMOS 1275 DEB, 13490 is space debris in LEO originally from a launch on Thu, 04 Jun 1981 UTC launched from the Plesetsk Missile And Space Complex (PKMTR). Debris objects in space refer to the collection of defunct objects orbiting the Earth. Examples of debris include non-operational satellites, rocket bodies, and fragments generated from explosions, collisions, or faulty payload assembly.

Loading next visibility...
Identifier
13490, 1981-053GL
Orbit
LEO
Country
Flag of CISCIS
Related business
Manufacturer
Unknown
Mission
Spacecraft
Bus & Motor
Unknown
Mass
Unknown
Launch date (UTC)
1981-06-04 (45 years ago)
Launch vehicle
Unknown
Launch site
Plesetsk Missile And Space Complex (PKMTR)
Object type
Payload
Rocket body
Debris
Shape & HBR
Unknown shape, 0.1 m
Radar Cross Section
Small (<0.1 m²)

Expand to show TLE details & history
Last TLE update: 1 day ago

TLE from 1 day ago
0 COSMOS 1275 DEB
1 13490U 81053GL  26062.78703643  .00000577  00000-0  55595-3 0  9999
2 13490  82.8378 186.2847 0064031  27.4223 124.5048 13.77517066194668
Epoch: 2026-03-03T18:53Z
TLE epoch observation values (Epoch: 2026-03-03T18:53:19.947Z)
Latitude
27.2768°
Longitude
-82.30521°
Altitude
1,002.909 km
Speed
7.339 km/s
True Right ascension
00h 10m 21s
True Declination
27° 08' 30"
Sunlit
Object was in daylight at epoch
Visualization orbit readout
Latitude
Unknown
Longitude
Unknown
Altitude
Unknown
Speed
Unknown
Apparent Right ascension
Unknown
Apparent Declination
Unknown
Sunlit
N/A
Visualization observer readout
Local Sidereal Time
23:58:09
Azimuth
Unknown
Elevation
Unknown
Doppler factor
Unknown
Orbital elements
Apogee altitude
1,016.906 km
Perigee altitude
922.806 km
Semi-major axis
7,347.993 km
Eccentricity
0.0064
Inclination
82.8378°
RAAN
186.2847°
Arg. of periapsis
27.4223°
True anomaly
125.10672°
Mean anomaly
124.5048°
Eccentric anomaly
124.80603°
Mean motion
3.4458 °/min
Orbital period
104.48 mins
BSTAR
0.00055595
Loading maneuver chart data...
Computing Atmospheric mass density...

Documentation

Showing up to 5 results
|